MOLNIYA 3-8

Last updated on Oct. 29, 2020, 5:52 a.m. UTC

1 10455U 77105A   20301.48478760  .00000581  00000-0 -30209-3 0  9997
2 10455  62.3764  91.0988 7312664 277.7639  12.2534  2.00415628315060
UTC
Height (km)
Latitude
Longitude
Inclination
Orbital Period
UTC large
Height (km)
Speed (km/s)
/
Latitude / Longitude
Inclination (degrees)
Orbital Period (minutes)
Azimuth
Elevation
Range (km)
Doppler Factor
iOS Compass Heading
iOS Angle

Next 30 passes for location: Hong Kong

Rise time Rise Azimuth (degrees) Set time Set Azimuth (degrees) Duration Max altitude (degrees)

No matching passes for this satellites